Baker, MT

8:13 PM MST on February 19, 2017 (GMT -0700)
Baker Municipal

Weather History for KBHK - August, 2012

Change the Weather History Date:

Sunday, August 5, 2012

  Actual Average Record
Temperature  
Mean Temperature 68 °F -  
Max Temperature 91 °F 86 °F 93 °F (2005)
Min Temperature 46 °F 52 °F 46 °F (2012)
Cooling Degree Days 4    
Growing Degree Days 18 (Base 50)    
Moisture  
Dew Point 40 °F    
Average Humidity 40    
Maximum Humidity 83    
Minimum Humidity 12    
Precipitation  
Precipitation 0.00 in - - ()
Sea Level Pressure  
Sea Level Pressure 30.06 in    
Wind  
Wind Speed 5 mph (SE)    
Max Wind Speed 10 mph    
Max Gust Speed 18 mph    
Visibility 10 miles    
Events      
Averages and records for this station are not official NWS values.
T = Trace of Precipitation, MM = Missing Value Source: NWS Daily Summary

Daily Weather History Graph

Daily Weather History Graph

Search for Another Location

Airport or City:

Trip Planner

Search our weather history database for the weather conditions in past years. The results will help you decide how hot, cold, wet, or windy it might be!

Date:

Astronomy

Aug. 05, 2012 Rise Set
Actual Time 5:43 AM MDT 8:21 PM MDT
Civil Twilight 5:09 AM MDT 8:55 PM MDT
Nautical Twilight 4:26 AM MDT 9:38 PM MDT
Astronomical Twilight 3:36 AM MDT 10:27 PM MDT
Moon 9:41 PM MDT (8/5) 9:53 AM MDT (8/5)
Length of Visible Light 15h 45m
Length of Day
14h 37m
Waning Gibbous, 86% of the Moon is Illuminated
Aug 5
Waning Gibbous
Aug 9
Last Quarter
Aug 17
New
Aug 24
First Quarter
Aug 31
Full

Hourly Weather History & Observations

Time (MDT) Temp. Dew Point Humidity Pressure Visibility Wind Dir Wind Speed Gust Speed Precip Events Conditions
12:51 AM 50.0 °F 45.0 °F 83% 30.18 in 10.0 mi SSE 5.8 mph - N/A   Clear
1:51 AM 51.1 °F 45.0 °F 80% 30.18 in 10.0 mi SE 5.8 mph - N/A   Clear
2:51 AM 52.0 °F 45.0 °F 77% 30.16 in 10.0 mi SSE 5.8 mph - N/A   Clear
3:51 AM 52.0 °F 45.0 °F 77% 30.15 in 10.0 mi ESE 5.8 mph - N/A   Clear
5:51 AM 46.9 °F 42.1 °F 83% 30.14 in 10.0 mi East 4.6 mph - N/A   Clear
6:51 AM 51.1 °F 45.0 °F 80% 30.14 in 10.0 mi Calm Calm - N/A   Clear
8:51 AM 72.0 °F 46.0 °F 40% 30.12 in 10.0 mi Variable 3.5 mph - N/A   Clear
9:51 AM 75.9 °F 46.0 °F 35% 30.12 in 10.0 mi South 8.1 mph - N/A   Clear
10:51 AM 80.1 °F 42.1 °F 26% 30.11 in 10.0 mi SSE 8.1 mph - N/A   Clear
11:51 AM 82.9 °F 37.9 °F 20% 30.08 in 10.0 mi SSW 10.4 mph 18.4 mph N/A   Clear
12:51 PM 86.0 °F 36.0 °F 17% 30.05 in 10.0 mi WSW 5.8 mph - N/A   Clear
1:51 PM 88.0 °F 35.1 °F 15% 30.04 in 10.0 mi SSW 8.1 mph - N/A   Clear
2:51 PM 90.0 °F 36.0 °F 15% 30.01 in 10.0 mi Calm Calm - N/A   Clear
3:51 PM 91.0 °F 34.0 °F 13% 29.99 in 10.0 mi Variable 5.8 mph - N/A   Clear
4:51 PM 91.0 °F 32.0 °F 12% 29.99 in 10.0 mi Calm Calm - N/A   Clear
5:51 PM 91.0 °F 32.0 °F 12% 29.99 in 10.0 mi Variable 3.5 mph - N/A   Clear
6:51 PM 89.1 °F 34.0 °F 14% 29.98 in 10.0 mi NNW 4.6 mph - N/A   Clear
7:51 PM 82.9 °F 39.9 °F 22% 29.97 in 10.0 mi NE 6.9 mph - N/A   Clear
8:51 PM 72.0 °F 39.9 °F 31% 29.99 in 10.0 mi ENE 5.8 mph - N/A   Clear
9:51 PM 69.1 °F 41.0 °F 36% 30.01 in 10.0 mi East 5.8 mph - N/A   Clear
10:51 PM 66.0 °F 43.0 °F 43% 30.01 in 10.0 mi ESE 3.5 mph - N/A   Clear
11:51 PM 64.0 °F 43.0 °F 46% 30.01 in 10.0 mi SSE 4.6 mph - N/A   Clear